Stations météo

réclame
Mon MeteoGroup
Wick Airport (AWS), Grande-Bretagne (3075): Température de l'air & dewpoint: 19.02.2018 09:00:00 - 25.02.2018 09:00:00 (GMT)Wick Airport (AWS), Grande-Bretagne (3075): Température de l'air -20cm: 19.02.2018 09:00:00 - 25.02.2018 09:00:00 (GMT)Wick Airport (AWS), Grande-Bretagne (3075): Vitesse du vent & gusts: 19.02.2018 09:00:00 - 25.02.2018 09:00:00 (GMT)Wick Airport (AWS), Grande-Bretagne (3075): Direction du vent: 19.02.2018 09:00:00 - 25.02.2018 09:00:00 (GMT)Wick Airport (AWS), Grande-Bretagne (3075): reduced air pressure: 19.02.2018 09:00:00 - 25.02.2018 09:00:00 (GMT)Wick Airport (AWS), Grande-Bretagne (3075): visibility: 19.02.2018 09:00:00 - 25.02.2018 09:00:00 (GMT)Wick Airport (AWS), Grande-Bretagne (3075): Quantités de précipitations: 19.02.2018 09:00:00 - 25.02.2018 09:00:00 (GMT)
Date & Time tt [°C] td [°C] tt -20cm [°C] ff [km/h] ff [knt] fx [km/h] fx [knt] dd ppp [hPa] vv [km] rr [mm]
25.02.2018 09:00:00 4,0 -0,1 3,2 26 14 - - SSE 1030,7 23 0,0
25.02.2018 08:00:00 3,6 -0,4 - 18 10 - - SSE 1030,5 24 0,0
25.02.2018 07:00:00 3,6 -0,5 - 22 12 - - SSE 1030,1 30 0,0
25.02.2018 06:00:00 3,6 -0,7 - 22 12 - - SSE 1029,7 28 0,0
25.02.2018 05:00:00 3,7 -0,6 - 29 16 - - SSE 1029,5 22 0,0
25.02.2018 04:00:00 3,8 -0,5 - 28 15 52 28 SSE 1029,6 20 0,0
25.02.2018 03:00:00 3,9 -0,7 - 31 17 57 31 SSE 1029,2 22 0,0
25.02.2018 02:00:00 3,9 -0,1 - 31 17 59 32 SSE 1029,2 19 0,0
25.02.2018 01:00:00 3,9 0,0 - 35 19 55 30 SSE 1028,7 16 0,0
25.02.2018 00:00:00 3,9 0,0 - 31 17 54 29 SSE 1029,1 15 0,0
24.02.2018 23:00:00 4,1 0,0 - 35 19 55 30 SSE 1029,0 17 0,0
24.02.2018 22:00:00 4,2 -0,2 - 35 19 50 27 SSE 1028,8 17 0,0
24.02.2018 21:00:00 4,2 -0,5 - 35 19 52 28 SSE 1028,5 15 0,0
24.02.2018 20:00:00 4,4 -0,4 - 31 17 50 27 SSE 1028,1 16 0,0
24.02.2018 19:00:00 4,5 -0,4 - 31 17 48 26 SSE 1027,8 15 0,0
24.02.2018 18:00:00 4,5 -0,4 - 29 16 48 26 SSE 1027,2 15 0,0
24.02.2018 17:00:00 4,9 -1,1 - 31 17 55 30 SSE 1026,5 25 0,0
24.02.2018 16:00:00 5,3 -0,1 - 37 20 54 29 SSE 1025,9 21 0,0
24.02.2018 15:00:00 5,7 -0,3 - 34 18 55 30 SSE 1026,1 15 0,0
24.02.2018 14:00:00 5,7 -0,4 - 37 20 54 29 SSE 1025,7 16 0,0
24.02.2018 13:00:00 5,6 0,7 - 34 18 54 29 SSE 1025,7 11 0,0
24.02.2018 12:00:00 5,4 0,7 - 37 20 61 33 SSE 1025,2 18 0,0
24.02.2018 11:00:00 4,9 -0,2 - 35 19 65 35 SSE 1025,1 15 0,0
24.02.2018 10:00:00 4,7 -0,2 - 42 23 65 35 SSE 1024,8 17 0,0
24.02.2018 09:00:00 4,4 -0,2 3,2 39 21 59 32 SSE 1024,6 16 0,0
24.02.2018 08:00:00 4,1 -0,1 - 39 21 61 33 SSE 1023,9 23 0,0
24.02.2018 07:00:00 4,0 0,0 - 39 21 61 33 SSE 1023,0 17 0,0
24.02.2018 06:00:00 3,7 -0,3 - 41 22 57 31 SSE 1022,3 20 0,0
24.02.2018 05:00:00 4,0 -0,9 - 39 21 65 35 SSE 1022,6 30 0,0
24.02.2018 04:00:00 4,1 -1,0 - 39 21 61 33 SSE 1022,0 29 0,0
24.02.2018 03:00:00 4,2 -0,8 - 41 22 59 32 SSE 1021,5 23 0,0
24.02.2018 02:00:00 4,3 -1,4 - 37 20 61 33 SSE 1022,0 30 0,0
24.02.2018 01:00:00 4,3 -0,9 - 35 19 57 31 SSE 1021,8 30 0,0
24.02.2018 00:00:00 4,3 -1,3 - 31 17 57 31 S 1021,4 30 0,0
23.02.2018 23:00:00 4,2 0,0 - 35 19 54 29 SSE 1020,8 30 0,0
23.02.2018 22:00:00 4,0 0,8 - 37 20 57 31 SSE 1020,9 23 0,0
23.02.2018 21:00:00 4,0 -0,2 - 34 18 57 31 SSE 1020,3 25 0,0
23.02.2018 20:00:00 3,9 -0,9 - 37 20 57 31 SSE 1020,3 29 0,0
23.02.2018 19:00:00 4,0 -0,8 - 35 19 63 34 SSE 1020,4 26 0,0
23.02.2018 18:00:00 4,6 -1,0 - 31 17 50 27 SSE 1019,9 18 0,0
23.02.2018 17:00:00 5,0 -0,4 - 26 14 54 29 SSE 1019,7 21 0,0
23.02.2018 16:00:00 4,9 -1,2 - 26 14 - - SSE 1019,3 25 0,0
23.02.2018 15:00:00 4,7 -1,2 - 24 13 - - SSE 1019,5 14 0,0
23.02.2018 14:00:00 4,8 -1,5 - 24 13 - - S 1019,9 15 0,0
23.02.2018 13:00:00 4,6 -0,9 - 26 14 - - S 1019,7 15 0,0
23.02.2018 12:00:00 4,4 -0,6 - 28 15 - - S 1019,8 10 0,0
23.02.2018 11:00:00 3,9 -0,3 - 22 12 - - SSW 1019,8 13 0,0
23.02.2018 10:00:00 3,3 -0,4 - 24 13 - - S 1019,5 16 0,0
23.02.2018 09:00:00 3,1 -0,6 3,4 18 10 - - S 1019,6 16 0,0
23.02.2018 08:00:00 3,1 -0,7 - 18 10 - - S 1019,5 19 0,0
23.02.2018 07:00:00 3,5 -0,1 - 22 12 - - SSE 1019,3 17 0,0
23.02.2018 06:00:00 3,4 -0,3 - 22 12 - - S 1019,0 21 0,0
23.02.2018 05:00:00 3,5 -0,5 - 26 14 - - S 1019,1 24 0,0
23.02.2018 04:00:00 3,8 0,2 - 24 13 - - S 1019,2 20 0,0
23.02.2018 03:00:00 3,8 0,3 - 22 12 - - S 1019,1 24 0,0
23.02.2018 02:00:00 4,0 0,4 - 24 13 - - S 1019,5 26 0,0
23.02.2018 01:00:00 4,3 0,6 - 26 14 - - S 1019,5 23 0,0
23.02.2018 00:00:00 4,6 1,2 - 26 14 - - S 1019,3 20 0,0
22.02.2018 23:00:00 4,9 1,5 - 26 14 46 25 S 1019,5 21 0,0
22.02.2018 22:00:00 4,8 1,9 - 31 17 48 26 S 1019,8 24 0,0
22.02.2018 21:00:00 5,2 1,7 - 26 14 - - S 1019,9 22 0,0
22.02.2018 20:00:00 5,7 1,2 - 24 13 - - S 1020,1 25 0,0
22.02.2018 19:00:00 5,8 1,3 - 15 8 - - S 1020,2 25 0,0
22.02.2018 18:00:00 5,9 1,4 - 21 11 - - S 1020,1 23 0,0
22.02.2018 17:00:00 6,0 1,6 - 16 9 - - S 1020,1 25 0,0
22.02.2018 16:00:00 5,9 2,0 - 24 13 - - SSE 1020,3 20 0,0
22.02.2018 15:00:00 5,9 2,0 - 28 15 - - SSE 1020,5 20 0,0
22.02.2018 14:00:00 5,6 1,5 - 26 14 - - SSE 1020,8 15 0,0
22.02.2018 13:00:00 5,8 1,3 - 28 15 - - SSE 1021,4 18 0,0
22.02.2018 12:00:00 5,2 1,3 - 28 15 - - SSE 1021,6 28 0,0
22.02.2018 11:00:00 4,9 1,7 - 29 16 48 26 SSE 1021,9 18 0,0
22.02.2018 10:00:00 4,8 1,7 - 29 16 - - SSE 1022,5 16 0,0
22.02.2018 09:00:00 4,3 1,4 3,2 22 12 - - S 1022,9 13 0,0
22.02.2018 08:00:00 3,7 1,6 - 21 11 - - S 1023,2 13 0,0
22.02.2018 07:00:00 3,7 1,6 - 18 10 - - S 1023,4 20 0,0
22.02.2018 06:00:00 3,5 1,5 - 11 6 - - S 1023,6 16 0,0
22.02.2018 05:00:00 3,8 1,4 - 13 7 - - S 1023,8 22 0,0
22.02.2018 04:00:00 4,1 2,0 - 11 6 - - S 1024,0 18 0,0
22.02.2018 03:00:00 3,3 1,5 - 11 6 - - S 1024,7 20 0,0
22.02.2018 02:00:00 3,2 1,6 - 13 7 - - S 1025,0 24 0,0
22.02.2018 01:00:00 3,6 1,8 - 13 7 - - S 1025,5 19 0,0
22.02.2018 00:00:00 4,2 2,0 - 11 6 - - S 1025,7 17 0,0
21.02.2018 23:00:00 5,0 2,5 - 16 9 - - S 1025,7 18 0,0
21.02.2018 22:00:00 5,2 3,3 - 16 9 - - SSE 1026,1 15 0,0
21.02.2018 21:00:00 5,1 3,6 - 18 10 - - SSE 1026,4 14 0,0
21.02.2018 20:00:00 4,6 3,1 - 9 5 - - SSE 1026,8 15 0,0
21.02.2018 19:00:00 4,2 2,7 - 9 5 - - SE 1027,0 17 0,0
21.02.2018 18:00:00 4,1 2,9 - 9 5 - - SE 1027,0 13 0,0
21.02.2018 17:00:00 4,7 3,1 - 9 5 - - S 1027,1 13 0,0
21.02.2018 16:00:00 5,6 3,0 - 11 6 - - S 1027,3 22 0,0
21.02.2018 15:00:00 6,4 1,8 - 8 4 - - SE 1027,5 19 0,0
21.02.2018 14:00:00 7,0 2,6 - 11 6 - - SSE 1028,1 30 0,0
21.02.2018 13:00:00 6,6 3,1 - 11 6 - - SE 1028,3 25 0,0
21.02.2018 12:00:00 8,2 3,3 - 4 2 - - S 1028,5 13 0,0
21.02.2018 11:00:00 5,3 2,7 - 8 4 - - SSW 1029,0 24 0,0
21.02.2018 10:00:00 2,5 1,1 - 8 4 - - WSW 1029,3 17 0,0
21.02.2018 09:00:00 1,2 0,0 3,5 8 4 - - W 1029,5 24 0,0
21.02.2018 08:00:00 0,1 -0,8 - 9 5 - - W 1029,3 19 0,0
21.02.2018 07:00:00 -0,3 -1,2 - 13 7 - - W 1029,2 19 0,0
21.02.2018 06:00:00 0,2 -0,9 - 9 5 - - W 1029,1 18 0,0
21.02.2018 05:00:00 1,6 0,5 - 9 5 - - SW 1029,1 22 0,0
21.02.2018 04:00:00 0,6 -0,4 - 11 6 - - W 1029,0 28 0,0
21.02.2018 03:00:00 0,9 0,2 - 18 10 - - W 1029,1 35 0,0
21.02.2018 02:00:00 0,6 0,0 - 16 9 - - W 1029,5 12 0,0
21.02.2018 01:00:00 1,1 0,5 - 15 8 - - W 1029,6 12 0,0
21.02.2018 00:00:00 1,2 0,5 - 13 7 - - W 1029,7 13 0,0
20.02.2018 23:00:00 1,0 0,5 - 11 6 - - WSW 1028,9 12 0,0
20.02.2018 22:00:00 1,0 0,5 - 15 8 - - W 1028,8 12 0,0
20.02.2018 21:00:00 1,6 0,9 - 11 6 - - WSW 1028,5 12 0,0
20.02.2018 20:00:00 2,2 1,4 - 15 8 - - W 1028,3 10 0,0
20.02.2018 19:00:00 2,8 2,1 - 13 7 - - W 1027,8 11 0,0
20.02.2018 18:00:00 3,5 2,5 - 9 5 - - W 1027,3 11 0,0
20.02.2018 17:00:00 4,5 3,0 - 15 8 - - W 1026,6 15 0,0
20.02.2018 16:00:00 5,4 2,8 - 24 13 - - NW 1026,2 13 0,0
20.02.2018 15:00:00 7,6 4,4 - 28 15 - - WNW 1025,6 11 0,0
20.02.2018 14:00:00 7,2 4,7 - 29 16 - - WNW 1025,3 12 0,0
20.02.2018 13:00:00 8,0 5,7 - 29 16 - - WNW 1024,5 14 0,0
20.02.2018 12:00:00 7,8 5,5 - 29 16 - - WNW 1023,6 15 0,0
20.02.2018 11:00:00 7,7 6,4 - 26 14 - - WNW 1022,9 15 0,0
20.02.2018 10:00:00 6,6 6,1 - 22 12 - - W 1022,4 11 0,0
20.02.2018 09:00:00 4,4 4,2 3,5 15 8 - - WNW 1021,7 11 0,0
20.02.2018 08:00:00 3,8 3,7 - 21 11 - - W 1020,8 11 0,2
20.02.2018 07:00:00 3,3 3,1 - 18 10 - - W 1019,9 14 0,0
20.02.2018 06:00:00 3,5 3,2 - 18 10 - - W 1019,1 22 0,0
20.02.2018 05:00:00 3,9 3,3 - 15 8 - - W 1018,3 30 0,0
20.02.2018 04:00:00 4,5 4,3 - 8 4 - - SW 1018,0 19 0,2
20.02.2018 03:00:00 4,7 4,3 - 11 6 - - NW 1017,5 14 0,4
20.02.2018 02:00:00 4,8 4,7 - 18 10 - - WNW 1017,2 14 0,8
20.02.2018 01:00:00 4,9 4,9 - 28 15 - - W 1016,8 7 0,6
20.02.2018 00:00:00 5,4 5,4 - 22 12 - - WNW 1016,4 3,8 0,4
19.02.2018 23:00:00 6,3 6,3 - 15 8 - - W 1016,0 3,1 1,6
19.02.2018 22:00:00 6,2 6,2 - 13 7 - - SSE 1015,4 4,8 0,0
19.02.2018 21:00:00 6,2 6,2 - 16 9 - - SSE 1015,2 6 0,0
19.02.2018 20:00:00 6,2 6,2 - 15 8 - - SSE 1015,6 2,8 0,0
19.02.2018 19:00:00 6,2 6,2 - 16 9 - - SSE 1015,4 0,8 0,0
19.02.2018 18:00:00 6,2 6,2 - 15 8 - - SE 1015,3 0,3 0,0
19.02.2018 17:00:00 6,2 6,2 - 15 8 - - SE 1015,3 1,3 0,0
19.02.2018 16:00:00 6,3 6,3 - 15 8 - - SE 1015,3 10 0,0
19.02.2018 15:00:00 6,1 6,1 - 15 8 - - SSE 1015,4 7 0,2
19.02.2018 14:00:00 6,1 6,1 - 16 9 - - SSE 1015,4 3,0 0,6
19.02.2018 13:00:00 5,9 5,9 - 16 9 - - SSE 1015,3 2,7 0,4
19.02.2018 12:00:00 5,7 5,7 - 16 9 - - SE 1015,0 3,3 0,2
19.02.2018 11:00:00 5,8 5,8 - 16 9 - - SSE 1014,8 3,5 0,4
19.02.2018 10:00:00 5,7 5,7 - 15 8 - - SSE 1014,7 2,6 0,4
19.02.2018 09:00:00 5,6 5,6 3,0 16 9 - - SE 1014,3 4,0 0,2

tt = Température de l'air
td = dewpoint
tt -20cm = Température de l'air -20cm
ff = Vitesse du vent
fx = gusts
dd = Direction du vent
ppp = reduced air pressure
vv = visibility
rr = Quantités de précipitations

stations d'obs. à proximité